User: anonymous   Login
Location: Theydon Bois
(51.6750°N, 0.1050°E)
Time: 22:32:00
(UTC+01:00)
Language:

Cosmos 2112 Rocket - Orbit

View from above orbital plane
View from above orbital plane
View from above satellite
View from above satellite

Ground track
Ground track

The orbit data is extracted from the following two-line orbital elements,

1 21015U 90111B   18199.96441339 +.00000023 +00000-0 +16996-4 0  9998
2 21015 074.0510 129.1826 0022760 294.8848 133.8292 14.35938142542848
Epoch (UTC): 18 July 2018 23:08:45
Eccentricity: 0.0022760
inclination: 74.0510°
perigee height: 755 km
apogee height: 788 km
right ascension of ascending node: 129.1826°
argument of perigee: 294.8848°
revolutions per day: 14.35938142
mean anomaly at epoch: 133.8292°
orbit number at epoch: 54284

The dashed part of the orbit path shows where the satellite is in the earth's shadow,  

DLR